CPA902 RPLL-VHHH

Flight info

Callsign CPA902
Flight time N/A
Altitude 38000
Route RDVXCAB/06 CAB A461 NOMAN V533 BETTY
Aircraft A35K/H-SDE2E3GHIJ1J3J4J5LM1ORWXY/LB1D1

Departure

Time N/A
Airport Ninoy Aquino International Airport (RPLL)

Arrival

Time 2026-05-04 14:25
Airport Hong Kong International Airport (VHHH)
Time Latitude Longitude Altitude Speed Heading
2026-05-04 13:10 16.86121 120.21295 39904 ft 472 kts 311°
2026-05-04 13:11 16.88372 120.18803 39921 ft 472 kts 311°
2026-05-04 13:11 16.92889 120.13826 39923 ft 471 kts 311°
2026-05-04 13:12 16.97409 120.08860 39918 ft 472 kts 311°
2026-05-04 13:12 17.01939 120.03881 39918 ft 473 kts 311°
2026-05-04 13:13 17.06476 119.98891 39920 ft 474 kts 311°
2026-05-04 13:13 17.11019 119.93889 39923 ft 474 kts 311°
2026-05-04 13:14 17.15556 119.88890 39924 ft 474 kts 311°
2026-05-04 13:14 17.20062 119.83922 39927 ft 474 kts 311°
2026-05-04 13:15 17.24595 119.78920 39926 ft 474 kts 311°
2026-05-04 13:15 17.29133 119.73908 39928 ft 474 kts 311°
2026-05-04 13:16 17.33671 119.68893 39929 ft 474 kts 311°
2026-05-04 13:16 17.38208 119.63874 39935 ft 474 kts 310°
2026-05-04 13:17 17.42738 119.58861 39933 ft 473 kts 310°
2026-05-04 13:17 17.47259 119.53852 39929 ft 473 kts 310°
2026-05-04 13:18 17.51780 119.48839 39929 ft 473 kts 310°
2026-05-04 13:18 17.56297 119.43828 39940 ft 473 kts 310°
2026-05-04 13:19 17.60782 119.38848 39940 ft 473 kts 310°
2026-05-04 13:19 17.65301 119.33826 39937 ft 473 kts 310°
2026-05-04 13:20 17.69812 119.28809 39941 ft 473 kts 310°
2026-05-04 13:20 17.74326 119.23786 39957 ft 473 kts 310°
2026-05-04 13:21 17.78828 119.18772 39946 ft 471 kts 310°
2026-05-04 13:21 17.83325 119.13759 39946 ft 471 kts 310°
2026-05-04 13:22 17.87810 119.08755 39950 ft 471 kts 310°
2026-05-04 13:22 17.92295 119.03747 39948 ft 471 kts 310°
2026-05-04 13:23 17.96780 118.98736 39953 ft 471 kts 310°
2026-05-04 13:23 18.01270 118.93722 39951 ft 471 kts 310°
2026-05-04 13:24 18.05745 118.88714 39955 ft 470 kts 310°
2026-05-04 13:24 18.10220 118.83694 39952 ft 470 kts 310°
2026-05-04 13:25 18.16920 118.76178 39958 ft 469 kts 310°
2026-05-04 13:25 18.21379 118.71172 39959 ft 469 kts 309°
2026-05-04 13:26 18.25812 118.66192 39960 ft 468 kts 309°
2026-05-04 13:26 18.30265 118.61185 39962 ft 468 kts 310°
2026-05-04 13:27 18.34720 118.56173 39964 ft 468 kts 309°
2026-05-04 13:27 18.39168 118.51163 39963 ft 468 kts 309°
2026-05-04 13:28 18.43617 118.46149 39968 ft 468 kts 309°
2026-05-04 13:28 18.48064 118.41133 39966 ft 468 kts 309°
2026-05-04 13:29 18.52511 118.36113 39969 ft 468 kts 309°
2026-05-04 13:29 18.56951 118.31095 39972 ft 468 kts 309°
2026-05-04 13:30 18.61394 118.26072 39968 ft 468 kts 309°
2026-05-04 13:30 18.65798 118.21088 39972 ft 468 kts 309°
2026-05-04 13:31 18.69516 118.16876 39972 ft 468 kts 309°
2026-05-04 13:31 18.74675 118.11029 39980 ft 468 kts 309°
2026-05-04 13:32 18.78355 118.06855 39984 ft 468 kts 309°
2026-05-04 13:32 18.82781 118.01830 39974 ft 467 kts 309°
2026-05-04 13:33 18.87199 117.96811 39986 ft 466 kts 309°
2026-05-04 13:33 18.91609 117.91796 39982 ft 465 kts 309°
2026-05-04 13:34 18.96012 117.86786 39979 ft 465 kts 309°
2026-05-04 13:34 19.00416 117.81768 39989 ft 465 kts 309°
2026-05-04 13:35 19.06981 117.74286 39985 ft 465 kts 309°
2026-05-04 13:36 19.11372 117.69271 39991 ft 465 kts 309°
2026-05-04 13:36 19.15762 117.64254 39990 ft 465 kts 309°
2026-05-04 13:37 19.20157 117.59229 39993 ft 465 kts 309°
2026-05-04 13:37 19.24548 117.54204 40000 ft 464 kts 309°
2026-05-04 13:38 19.28922 117.49194 39992 ft 464 kts 309°
2026-05-04 13:38 19.33301 117.44175 40003 ft 463 kts 309°
2026-05-04 13:39 19.37669 117.39164 39999 ft 463 kts 309°
2026-05-04 13:39 19.42008 117.34181 39988 ft 463 kts 309°
2026-05-04 13:40 19.46368 117.29170 40002 ft 463 kts 309°
2026-05-04 13:40 19.50733 117.24150 40005 ft 463 kts 309°
2026-05-04 13:41 19.55092 117.19132 40002 ft 463 kts 309°
2026-05-04 13:41 19.59449 117.14111 40006 ft 463 kts 309°
2026-05-04 13:42 19.65979 117.06580 40004 ft 461 kts 309°
2026-05-04 13:42 19.70320 117.01568 40007 ft 461 kts 309°
2026-05-04 13:43 19.74658 116.96554 40010 ft 461 kts 309°
2026-05-04 13:43 19.78994 116.91538 40001 ft 461 kts 309°
2026-05-04 13:44 19.83299 116.86555 40006 ft 461 kts 309°
2026-05-04 13:44 19.87624 116.81544 40007 ft 460 kts 309°
2026-05-04 13:45 19.91947 116.76531 40000 ft 460 kts 309°
2026-05-04 13:45 19.96268 116.71516 40012 ft 459 kts 309°
2026-05-04 13:46 20.00277 116.66271 40015 ft 455 kts 299°
2026-05-04 13:46 20.03388 116.60431 40012 ft 453 kts 296°
2026-05-04 13:47 20.06323 116.54494 40010 ft 453 kts 295°
2026-05-04 13:47 20.09207 116.48590 40008 ft 452 kts 295°
2026-05-04 13:48 20.12112 116.42670 40010 ft 451 kts 295°
2026-05-04 13:48 20.15025 116.36755 40016 ft 451 kts 295°
2026-05-04 13:49 20.17940 116.30834 40015 ft 451 kts 295°
2026-05-04 13:49 20.20853 116.24913 40014 ft 451 kts 295°
2026-05-04 13:50 20.23759 116.18998 40012 ft 450 kts 295°
2026-05-04 13:50 20.26662 116.13083 40014 ft 450 kts 295°
2026-05-04 13:51 20.29557 116.07175 40015 ft 450 kts 295°
2026-05-04 13:51 20.32458 116.01257 40014 ft 450 kts 295°
2026-05-04 13:52 20.35353 115.95347 39582 ft 449 kts 295°
2026-05-04 13:52 20.36796 115.92391 39361 ft 450 kts 295°
2026-05-04 13:52 20.38239 115.89432 39127 ft 450 kts 295°
2026-05-04 13:53 20.39680 115.86475 38915 ft 450 kts 295°
2026-05-04 13:53 20.41123 115.83517 38712 ft 450 kts 295°
2026-05-04 13:53 20.42568 115.80553 38448 ft 451 kts 295°
2026-05-04 13:54 20.45466 115.74604 37920 ft 453 kts 295°
2026-05-04 13:54 20.46903 115.71654 37663 ft 454 kts 295°
2026-05-04 13:54 20.49816 115.65666 37154 ft 456 kts 294°
2026-05-04 13:55 20.51279 115.62658 36909 ft 456 kts 295°
2026-05-04 13:55 20.54252 115.56660 36415 ft 459 kts 298°
2026-05-04 13:55 20.56074 115.53844 36179 ft 463 kts 305°
2026-05-04 13:56 20.58226 115.51272 35957 ft 466 kts 309°
2026-05-04 13:56 20.60499 115.48783 35706 ft 468 kts 311°
2026-05-04 13:56 20.65162 115.43904 35235 ft 471 kts 311°
2026-05-04 13:57 20.67517 115.41470 34933 ft 471 kts 311°
2026-05-04 13:57 20.69873 115.39029 34482 ft 472 kts 311°
2026-05-04 13:58 20.76956 115.31633 32957 ft 477 kts 311°
2026-05-04 13:58 20.81674 115.26679 31505 ft 481 kts 311°
2026-05-04 13:58 20.84064 115.24165 30801 ft 483 kts 311°
2026-05-04 13:59 20.86460 115.21647 30152 ft 482 kts 311°
2026-05-04 13:59 20.88849 115.19137 29489 ft 480 kts 311°
2026-05-04 13:59 20.93582 115.14171 28203 ft 472 kts 311°
2026-05-04 14:00 20.95915 115.11716 27577 ft 467 kts 311°
2026-05-04 14:00 21.00500 115.06883 26375 ft 458 kts 311°
2026-05-04 14:00 21.02760 115.04501 25796 ft 453 kts 311°
2026-05-04 14:01 21.04997 115.02142 25221 ft 449 kts 311°
2026-05-04 14:01 21.07212 114.99801 24655 ft 445 kts 311°
2026-05-04 14:01 21.11572 114.95194 23573 ft 437 kts 311°
2026-05-04 14:02 21.13723 114.92921 22922 ft 433 kts 311°
2026-05-04 14:02 21.15858 114.90664 22302 ft 429 kts 311°
2026-05-04 14:02 21.17966 114.88434 21682 ft 424 kts 311°
2026-05-04 14:02 21.20033 114.86248 21078 ft 419 kts 311°
2026-05-04 14:03 21.22122 114.84038 20475 ft 415 kts 311°
2026-05-04 14:03 21.24139 114.81902 19901 ft 411 kts 311°
2026-05-04 14:03 21.26163 114.79758 19360 ft 407 kts 311°
2026-05-04 14:03 21.28166 114.77636 18821 ft 403 kts 311°
2026-05-04 14:04 21.32127 114.73435 17660 ft 397 kts 311°
2026-05-04 14:04 21.34083 114.71359 17051 ft 394 kts 311°
2026-05-04 14:04 21.36022 114.69301 16471 ft 390 kts 312°
2026-05-04 14:05 21.39850 114.65236 15322 ft 384 kts 312°
2026-05-04 14:05 21.41741 114.63227 14767 ft 381 kts 312°
2026-05-04 14:05 21.43619 114.61231 14221 ft 378 kts 312°
2026-05-04 14:06 21.45475 114.59257 13650 ft 375 kts 312°
2026-05-04 14:06 21.47338 114.57311 13198 ft 373 kts 315°
2026-05-04 14:06 21.49483 114.55722 13045 ft 377 kts 331°
2026-05-04 14:06 21.51870 114.54733 13046 ft 359 kts 338°
2026-05-04 14:07 21.54192 114.53935 13044 ft 345 kts 339°
2026-05-04 14:07 21.56477 114.53156 13041 ft 343 kts 339°
2026-05-04 14:07 21.58723 114.52384 13044 ft 343 kts 338°
2026-05-04 14:07 21.60930 114.51434 13047 ft 339 kts 327°
2026-05-04 14:08 21.62765 114.49918 12871 ft 330 kts 312°
2026-05-04 14:08 21.64349 114.48126 12603 ft 330 kts 309°
2026-05-04 14:08 21.65893 114.46308 12352 ft 330 kts 309°
2026-05-04 14:08 21.67445 114.44490 12130 ft 329 kts 309°
2026-05-04 14:09 21.70543 114.40886 11659 ft 327 kts 310°
2026-05-04 14:09 21.72090 114.39092 11439 ft 326 kts 310°
2026-05-04 14:10 21.75169 114.35527 10980 ft 324 kts 310°
2026-05-04 14:10 21.76697 114.33759 10814 ft 316 kts 310°
2026-05-04 14:10 21.78166 114.32062 10600 ft 303 kts 310°
2026-05-04 14:10 21.79578 114.30429 10370 ft 293 kts 310°
2026-05-04 14:11 21.80924 114.28869 10186 ft 286 kts 310°
2026-05-04 14:11 21.83630 114.25727 9697 ft 286 kts 310°
2026-05-04 14:11 21.84983 114.24156 9477 ft 285 kts 310°
2026-05-04 14:12 21.86331 114.22592 9240 ft 285 kts 310°
2026-05-04 14:12 21.87677 114.21030 8978 ft 283 kts 309°
2026-05-04 14:12 21.90035 114.17719 8629 ft 276 kts 297°
2026-05-04 14:13 21.90975 114.15909 8444 ft 276 kts 296°
2026-05-04 14:13 21.91898 114.14104 8256 ft 275 kts 296°
2026-05-04 14:13 21.92822 114.12302 8058 ft 275 kts 296°
2026-05-04 14:13 21.93748 114.10505 7864 ft 274 kts 296°
2026-05-04 14:14 21.94657 114.08741 7665 ft 272 kts 297°
2026-05-04 14:14 21.96492 114.05185 7282 ft 272 kts 297°
2026-05-04 14:14 21.97412 114.03404 7089 ft 272 kts 297°
2026-05-04 14:15 21.99252 113.99837 6712 ft 272 kts 296°
2026-05-04 14:15 22.01079 113.96293 6304 ft 270 kts 297°
2026-05-04 14:16 22.02906 113.92748 5925 ft 271 kts 297°
2026-05-04 14:16 22.03822 113.90971 5745 ft 271 kts 297°
2026-05-04 14:17 22.05651 113.87419 5336 ft 270 kts 297°
2026-05-04 14:17 22.06563 113.85647 5154 ft 270 kts 297°
2026-05-04 14:17 22.08384 113.82102 4765 ft 271 kts 297°
2026-05-04 14:18 22.08985 113.80935 4669 ft 265 kts 297°
2026-05-04 14:18 22.10879 113.77733 4301 ft 244 kts 316°
2026-05-04 14:19 22.14180 113.75797 3905 ft 223 kts 336°
2026-05-04 14:19 22.15129 113.75337 3828 ft 221 kts 336°
2026-05-04 14:19 22.16964 113.74438 3749 ft 217 kts 336°
2026-05-04 14:19 22.17874 113.73988 3705 ft 217 kts 336°
2026-05-04 14:20 22.19241 113.73310 3484 ft 217 kts 337°
2026-05-04 14:20 22.20617 113.72625 3288 ft 218 kts 338°
2026-05-04 14:20 22.21995 113.71951 3074 ft 216 kts 339°
2026-05-04 14:21 22.24692 113.72384 2721 ft 202 kts 41°
2026-05-04 14:21 22.25771 113.73373 2565 ft 204 kts 44°
2026-05-04 14:21 22.26835 113.74389 2429 ft 204 kts 44°
2026-05-04 14:21 22.27856 113.75449 2344 ft 201 kts 54°
2026-05-04 14:22 22.28488 113.76744 2320 ft 192 kts 71°
2026-05-04 14:22 22.28925 113.78076 2250 ft 181 kts 73°
2026-05-04 14:22 22.29313 113.79318 2029 ft 167 kts 73°
2026-05-04 14:22 22.29675 113.80473 1691 ft 161 kts 72°
2026-05-04 14:23 22.30396 113.82725 1078 ft 150 kts 71°
2026-05-04 14:23 22.30728 113.83757 903 ft 142 kts 72°
2026-05-04 14:23 22.31045 113.84735 707 ft 135 kts 73°
2026-05-04 14:24 22.31344 113.85690 552 ft 133 kts 73°
2026-05-04 14:24 22.31647 113.86627 373 ft 132 kts 73°
2026-05-04 14:24 22.31954 113.87564 208 ft 132 kts 74°
2026-05-04 14:24 22.32246 113.88500 41 ft 131 kts 75°
2026-05-04 14:25 22.32509 113.89327 38 ft 99 kts 70°
2026-05-04 14:25 22.32782 113.90177 38 ft 20 kts 72°
2026-05-04 14:25 22.32814 113.90313 38 ft 19 kts 83°
2026-05-04 14:26 22.32812 113.90467 39 ft 21 kts 98°
2026-05-04 14:26 22.32782 113.90633 38 ft 24 kts 101°
2026-05-04 14:26 22.32807 113.90807 38 ft 24 kts 70°
2026-05-04 14:26 22.32864 113.90983 38 ft 26 kts 71°
2026-05-04 14:27 22.32926 113.91175 38 ft 28 kts 71°
2026-05-04 14:27 22.32992 113.91378 38 ft 29 kts 70°
2026-05-04 14:27 22.33052 113.91572 38 ft 27 kts 71°
2026-05-04 14:27 22.33106 113.91738 38 ft 24 kts 71°
2026-05-04 14:28 22.33162 113.91914 38 ft 24 kts 71°
2026-05-04 14:28 22.33201 113.92034 38 ft 13 kts 70°
2026-05-04 14:28 22.33180 113.92123 38 ft 14 kts 143°
2026-05-04 14:28 22.33083 113.92163 38 ft 16 kts 161°
2026-05-04 14:29 22.32830 113.92258 38 ft 22 kts 161°
2026-05-04 14:29 22.32518 113.92373 38 ft 26 kts 160°
2026-05-04 14:30 22.32343 113.92440 38 ft 28 kts 161°
2026-05-04 14:30 22.32208 113.92491 38 ft 18 kts 158°
2026-05-04 14:30 22.32175 113.92687 38 ft 9 kts 131°
2026-05-04 14:31 22.32116 113.92713 39 ft 10 kts 160°
2026-05-04 14:31 22.31944 113.92778 39 ft 18 kts 160°
2026-05-04 14:32 22.31691 113.92884 38 ft 19 kts 160°
2026-05-04 14:32 22.31587 113.92923 38 ft 11 kts 161°
2026-05-04 14:32 22.31521 113.92888 38 ft 13 kts 240°
2026-05-04 14:32 22.31489 113.92796 38 ft 12 kts 257°
2026-05-04 14:33 22.31501 113.92736 37 ft 1 kts 292°
2026-05-04 14:33 22.31507 113.92723 38 ft 0 kts 292°
2026-05-04 14:34 22.31508 113.92720 38 ft 3 kts 296°
2026-05-04 14:34 22.31560 113.92605 38 ft 26 kts 296°
2026-05-04 14:34 22.31646 113.92487 38 ft 17 kts 359°
2026-05-04 14:34 22.31711 113.92587 38 ft 23 kts 70°
2026-05-04 14:35 22.31768 113.92764 38 ft 26 kts 70°
2026-05-04 14:35 22.31684 113.92886 38 ft 23 kts 162°
2026-05-04 14:35 22.31552 113.92917 38 ft 16 kts 197°
2026-05-04 14:35 22.31504 113.92857 38 ft 9 kts 231°
2026-05-04 14:36 22.31443 113.92851 38 ft 9 kts 166°
2026-05-04 14:36 22.31424 113.92859 38 ft 2 kts 160°
2026-05-04 14:36 22.31409 113.92865 38 ft 0 kts 160°
2026-05-04 14:40 22.31409 113.92864 38 ft 0 kts 160°
2026-05-04 14:40 22.31409 113.92865 38 ft 0 kts 160°
2026-05-04 14:40 22.31409 113.92864 38 ft 0 kts 160°
2026-05-04 14:41 22.31410 113.92864 38 ft 0 kts 160°